FW7345 Weather Reports


Display with metric or nautical units.
time (UTC)temp
F
wind
direction
speed
MPH
gust
MPH
rain 1hr
in
rain 24hr
in
rain mn
in
humidity
%
barometer
mb
20260509120054 74 0 0.0 1.0 0.00 2.28 0.00 100 1010.9
20260509114552 74 0 0.0 2.0 0.00 2.28 0.00 100 1010.9
20260509113106 73 0 0.0 0.0 0.00 2.28 0.00 100 1010.6
20260509111600 73 0 0.0 0.0 0.00 2.28 0.00 100 1009.9
20260509110053 0 0.0 0.0 0.00 2.28 0.00 1010.3
20260509104557 0 0.0 0.0 0.00 2.28 0.00 1010.1
20260509103057 0 0.0 0.0 0.00 2.28 0.00 1009.9
20260509101551 0 0.0 0.0 0.00 2.28 0.00 1010.2
20260509100108 0 0.0 0.0 0.00 2.28 0.00 1010.1
20260509094554 0 0.0 0.0 0.00 2.28 0.00 1009.8
20260509093053 0 0.0 0.0 0.00 2.28 0.00 1009.4
20260509091603 0 0.0 0.0 0.00 2.28 0.00 1009.6
20260509090052 0 0.0 0.0 0.00 2.28 0.00 1010.1
20260509084551 0 0.0 0.0 0.00 2.28 0.00 1010.0
20260509083048 75 0.0 0.0 0.00 2.28 0.00 96 1009.8
20260509081559 74 0 0.0 1.0 0.00 2.28 0.00 96 1009.8
20260509080059 75 119 0.0 2.0 0.00 2.28 0.00 96 1009.6
20260509074554 74 0 0.0 3.0 0.00 2.28 0.00 96 1009.5
20260509073104 74 175 0.0 5.0 0.00 2.28 0.00 96 1009.3
20260509071550 74 242 0.0 2.0 0.00 2.28 0.00 96 1009.9
20260509070054 74 0 0.0 0.0 0.00 2.28 0.00 96 1010.0
20260509064550 74 0 0.0 0.0 0.00 2.28 0.00 96 1010.4
20260509063059 74 0 0.0 0.0 0.00 2.28 0.00 95 1010.6
20260509061606 74 0 0.0 0.0 0.00 2.28 0.00 95 1010.2
20260509060058 74 0 0.0 1.0 0.00 2.28 0.00 95 1010.6
20260509054559 74 0 0.0 0.0 0.00 2.28 0.00 95 1010.6
20260509053100 74 0 0.0 0.0 0.00 2.28 0.00 95 1010.6
20260509051555 74 0 0.0 1.0 0.00 2.28 0.00 95 1010.5
20260509050053 74 0 0.0 3.0 0.00 2.28 0.00 95 1010.4
20260509044556 73 0 0.0 3.0 0.00 2.28 2.28 95 1010.4
20260509043059 73 0 0.0 2.0 0.00 2.28 2.28 95 1010.4
20260509041552 74 230 0.0 1.0 0.00 2.28 2.28 95 1010.4
20260509040058 73 0 0.0 1.0 0.00 2.28 2.28 95 1010.4
20260509034559 73 0 0.0 0.0 0.00 2.28 2.28 95 1010.3
20260509033055 73 0 0.0 0.0 0.00 2.28 2.28 95 1010.3
20260509031556 73 0 0.0 3.0 0.00 2.28 2.28 95 1009.9
20260509030054 73 0 0.0 0.0 0.00 2.28 2.28 95 1010.1
20260509024552 73 0 0.0 1.0 0.00 2.28 2.28 95 1010.1
20260509023048 73 0 0.0 1.0 0.00 2.28 2.28 94 1009.6
20260509021551 73 0 0.0 1.0 0.00 2.28 2.28 94 1009.4
20260509020050 73 0 0.0 1.0 0.00 2.28 2.28 94 1009.2
20260509014551 73 0 0.0 0.0 0.00 2.28 2.28 94 1009.2
20260509013054 73 0 0.0 1.0 0.00 2.28 2.28 94 1009.4
20260509011551 73 0 0.0 1.0 0.00 2.28 2.28 93 1009.2
20260509010052 74 0 0.0 2.0 0.00 2.28 2.28 93 1009.2
20260509004553 74 0 0.0 4.0 0.00 2.28 2.28 93 1009.2
20260509003100 74 0 0.0 1.0 0.00 2.28 2.28 93 1009.1
20260509001551 74 0 0.0 1.0 0.00 2.28 2.28 93 1009.3
20260509000049 74 0 0.0 3.0 0.00 2.28 2.28 93 1009.4
20260508234555 74 0 0.0 3.0 0.00 2.28 2.28 92 1009.4
20260508233106 75 0 0.0 5.0 0.00 2.28 2.28 92 1009.2
20260508231633 74 0 0.0 2.0 0.00 2.28 2.28 93 1009.2
20260508230100 75 0 0.0 1.0 0.00 2.28 2.28 92 1009.7
20260508224559 75 0 0.0 2.0 0.00 2.28 2.28 91 1009.5
20260508223054 75 0 0.0 1.0 0.00 2.28 2.28 91 1009.5
20260508221552 76 0 0.0 2.0 0.00 2.28 2.28 91 1009.5
20260508220053 76 0 0.0 2.0 0.00 2.28 2.28 90 1009.5
20260508214624 77 233 0.0 3.0 0.00 2.28 2.28 90 1009.6
20260508213051 77 0 0.0 3.0 0.00 2.28 2.28 89 1009.7
20260508211556 77 160 0.0 2.0 0.00 2.28 2.28 91 1009.9
20260508210054 76 0 0.0 3.0 0.00 2.28 2.28 91 1010.2
20260508204556 75 0 0.0 3.0 0.00 2.28 2.28 92 1010.2
20260508203116 75 186 1.0 4.0 0.00 2.28 2.28 90 1010.5
20260508201557 75 0 0.0 4.0 0.00 2.28 2.28 92 1010.7
20260508200059 74 165 0.0 4.0 0.00 2.28 2.28 95 1010.6
20260508194555 71 136 0.0 3.0 0.00 2.28 2.28 94 1011.1
20260508193105 70 0 0.0 3.0 0.00 2.28 2.28 95 1011.2
20260508191554 70 0 0.0 2.0 0.00 2.28 2.28 94 1011.6
20260508190049 70 0 0.0 3.0 0.00 2.28 2.28 94 1011.6
20260508184546 70 0 0.0 1.0 0.04 2.28 2.28 95 1011.6
20260508183059 69 0 0.0 2.0 0.05 2.28 2.28 94 1011.5
20260508181554 69 0 0.0 3.0 0.08 2.28 2.28 94 1011.6
20260508180053 70 0 0.0 1.0 0.08 2.28 2.28 94 1011.7
20260508174553 69 0 1.0 3.0 0.05 2.24 2.24 97 1012.0
20260508173054 69 63 0.0 2.0 0.04 2.23 2.23 97 1012.5
20260508171554 68 208 0.0 3.0 0.01 2.20 2.20 96 1012.8
20260508170049 68 77 1.0 3.0 0.01 2.20 2.20 96 1012.5
20260508164604 68 0 2.0 5.0 0.00 2.19 2.19 96 1012.7
20260508163053 69 95 0.0 7.0 0.00 2.19 2.19 96 1013.0
20260508161559 69 104 1.0 5.0 0.00 2.19 2.19 97 1012.7
20260508160054 68 61 1.0 6.0 0.00 2.19 2.19 96 1012.8
20260508154551 68 86 2.0 5.0 0.00 2.19 2.19 96 1013.1
20260508153055 68 72 2.0 5.0 0.00 2.19 2.19 97 1013.3
20260508151555 69 90 1.0 5.0 0.00 2.19 2.19 97 1013.1
20260508150049 69 1 2.0 3.0 2.19 2.19 2.19 97 1012.8
20260508144550 69 95 0.0 2.0 2.19 2.19 2.19 96 1013.2
20260508143104 69 0 0.0 2.0 2.19 2.19 2.19 95 1013.1
20260508141553 69 0 0.0 3.0 0.00 0.00 0.00 95 1013.1
20260508140101 69 56 0.0 1.0 0.00 0.00 0.00 94 1013.1
20260508134557 69 2 0.0 2.0 0.00 0.00 0.00 93 1013.3
20260508133050 69 50 0.0 3.0 0.00 0.00 0.00 93 1013.2
20260508131549 68 95 1.0 4.0 0.00 0.00 0.00 93 1013.2
20260508130052 68 0 1.0 2.0 0.00 0.00 0.00 93 1013.2
20260508124552 68 0 0.0 2.0 0.00 0.00 0.00 93 1013.5
20260508123053 68 0 0.0 4.0 0.00 0.00 0.00 93 1013.2
20260508121551 68 0 2.0 4.0 0.00 0.00 0.00 92 1013.1